KFET

Details ICAO KFET
Name FREMONT MUNI
Region United States
Timezone America/Chicago (UTC-5.0)
Plans Departing 4
Arriving 3
Stats Elevation 1,203 ft / 367 m (AMSL)
Location 41.448691° -96.518832°
Runways 2
Magnetic Variation 2.927° E
Sunrise 2018-05-21 11:03:08 UTC / 2018-05-21 06:03:08 Local
Sunset 2018-05-22 01:45:05 UTC / 2018-05-21 20:45:05 Local
Advertisement - Login to hide

Runways

ID Width Length Bearing (true) Bearing (mag) Surface Threshold Offset Overrun Length
1 49 ft / 15 m 2,359 ft / 719 m 11.35° 8.42° Asphalt 387 ft / 118 m 0 ft / 0 m
13 98 ft / 30 m 5,503 ft / 1,677 m 141.00° 138.07° Asphalt 0 ft / 0 m 0 ft / 0 m
19 49 ft / 15 m 2,359 ft / 719 m 191.35° 188.42° Asphalt 604 ft / 184 m 0 ft / 0 m
31 98 ft / 30 m 5,503 ft / 1,677 m 321.00° 318.07° Asphalt 853 ft / 260 m 607 ft / 185 m

Map

Weather


0- 5 10 15 20 25 30 35+ Temperature / ° C

Clouds and Precipitation
Forecast for 2018-05-21 18:00 UTC. Updated 4 hours ago

Ground ~20,000 ft ~40,000 ft Winds

METAR

KFET 212035Z AUTO 00000KT 10SM SCT039 23/14 A3001 RMK AO2 T02310140

TAF

Not found

Frequencies

Recorded 121.27 MHz AWOS 3
Approach 120.10 MHz OMAHA APP/DEP
Unicom 122.80 MHz CTAF/UNICOM
Warning: Do not use this data for real-world aviation or navigation. No guarantee of current accuracy is given.